Location: Sihaung
(22.8641°N, 94.0549°E)
Time: 17:59:29
(UTC+00:00)

FENGYUN 3A - Pass Details

Date: 03 March 2021
Orbit: 824 x 836 km, 98.4° (Epoch: 13 April)

Event Time Altitude Azimuth Distance (km) Brightness Sun altitude
Rises 22:17:27 0° 2° (N) 3,382 6.9 -25.1°
Reaches altitude 10° 22:19:53 10° 356° (N) 2,446 6.1 -24.5°
Enters shadow 22:23:31 36° 326° (NW) 1,298 4.4 -23.7°
